Location: Arbon
(43.0005°N, 0.7472°E)
Time: 10:52:50
(UTC+00:00)

Cosmos 1603 - Pass Details

Date: 22 April 2026
Orbit: 828 x 860 km, 71.0° (Epoch: 15 May)

Event Time Altitude Azimuth Distance (km) Brightness Sun altitude
Exits shadow 22:08:01 75° 354° (N) 874 3.7 -29.4°
Drops below altitude 10° 22:13:17 10° 23° (NNE) 2,479 6.5 -29.8°
Sets 22:15:45 0° 25° (NNE) 3,423 7.3 -30.0°
